天目一号 03星 (TIANMU-1 03)

导读

TIANMU-1 03(天目一号气象星座03星)是中国研制的遥感探测卫星,于2023年3月22日由快舟一号甲运载火箭在酒泉卫星发射中心,以“一箭四星”方式送入预定轨道。该卫星属于天目一号气象星座,主要用于获取全球大气环境要素信息,可提供商业气象数据服务,支撑全球全天候立体化探测。截至2026年2月,卫星仍在轨正常运行,轨道参数稳定。

Basic Information
目录编号:
55973
目录名称:
TIANMU-1 03
国际标识:
2023-039A
轨道中心:
EARTH
卫星名称:
天目一号 03星
卫星全名:
天目一号 03星 (TIANMU-1 03)
卫星状态:
在轨 (已飞行1224 天)
发射日期:
2023-03-22 UTC
国别 :
中国 (CN)
星等 :
--
Orbit Information
数据来源 国际轨道数据 AOE轨道数据
星历时间 2026-07-27T22:02:18+0800
13小时前
查看轨道信息
2026-07-25T09:00:00+0800
3天前
查看轨道信息
半长轴 6799.66km 6799.802km
偏心率 0.0001576 0.000164
轨道倾角 97.525° 97.524°
近地点辐角 332.004° 344.758°
升交点赤经 24.173° 21.525°
平近点角 28.112° 248.641°
近地点 420.451km 420.549km
远地点 422.595km 422.781km
周期 93.002分钟 93.005分钟
每日圈数 15.483604 15.483116
Detailed Information
覆盖范围:
全球
运营商:
中国航天科工集团有限公司
运营商所在国:
中国
制造商(研发单位):
中国航天科工集团有限公司
制造商所在国:
中国
使用方式:
暂无
Satellite Introduction
天目一号气象星座,是由中国航天科工集团落户西部(重庆)科学城西永微电园企业研制,主要用于获取全球大气环境要素信息,建成后可实现全球全天候海洋、大气层、电离层的立体化、一体化探测。该卫星仍在工作。
2D Orbit Map
3D Orbit Map
Orbit Altitude Analysis Chart
Orbit Inclination Analysis Chart
Orbit Comprehensive Analysis Chart
View Comprehensive Chart